www.pogodaiklimat.ru

Погода и климат >> Архив погоды >> Россия >> Астраханская область >> Верхний Баскунчак


АРХИВ ПОГОДЫ в Верхнем Баскунчаке

Время (UTC), дата Ветер
(напр.,м/с)
 
Видим.   Явления Облачность Т
(С)
Тd
(С)
f
(%)
Тe
(С)
Тes
(С)
Комфортность P
(гПа)
Po
(гПа)
Тmin
(С)
Tmax
(С)
R
(мм)
R24
(мм)
S
(см)
00 16.04 В 4 20 км 10/0
[Ac und]
+11.1 +6.1 71 +9 +9 1015.9 1011.6
03 16.04 СВ 4 20 км 8/0
[Ac trans Ci sp]
+9.8 +4.7 71 +7 +8 1015.9 1011.6 +9.8
06 16.04 В 6-10
{10}
20 км 8/0
[Ac trans Ci sp]
+13.3 +4.3 54 +11 +13 1015.8 1011.5
09 16.04 СВ 6-10
{10}
20 км 9/0
[Ac trans Ci sp]
+17.1 +5.0 45 +16 +19 1014.6 1010.5
12 16.04 С 6-10
{10}
20 км 9/0
[Ac trans Ci sp]
+18.6 +2.3 34 +18 +20 1013.0 1008.9
15 16.04 СВ 5
{11}
20 км 10/0
[Ac und]
+16.0 +3.4 43 +15 +15 1012.8 1008.5 +19.6
18 16.04 СВ 4 20 км 10/10 600 м
[Sc]
+13.6 +3.7 51 +12 +12 1013.8 1009.5
21 16.04 СВ 3 10 км слаб. дождь 10/10 300 м
[Frnb Ns]
+10.3 +7.4 82 +8 +8 1013.6 1009.3
00 17.04 СВ 4
{10}
4000 м в посл. час дождь 10/10 300 м
[Frnb Ns]
+9.2 +7.1 87 +6 +6 1013.0 1008.7
03 17.04 СВ 7-16
{16}
20 км {дождь} 9/9 600 м
[Cb calv]
+6.5 +2.8 77 +2 +2 1014.5 1010.2 +6.5 7
06 17.04 СВ 8-14
{16}
20 км {дождь} 10/0
[Ac und]
+5.5 +0.3 69 0 +1 1015.9 1011.5 +5.5
09 17.04 СВ 8-14
{16}
20 км 10/0
[Ac und]
+6.9 -0.7 58 +2 +3 1017.0 1012.7
12 17.04 СВ 9-16
{19}
20 км 9/0
[Ac trans]
+8.2 -1.7 50 +4 +4 1017.6 1013.2
15 17.04 СВ 7-14
{18}
20 км 6/0
[Ci sp]
+6.4 -8.7 33 +2 +2 1018.8 1014.4 +8.5
18 17.04 СВ 6-11
{14}
20 км 4/0
[Ci fib]
+3.7 -9.8 37 -1 -1 1021.0 1016.5
21 17.04 СВ 6-10
{14}
20 км ясно +1.4 -9.5 44 -4 -4 1021.6 1017.1
00 18.04 СВ 5
{13}
20 км ясно -0.2 -9.5 49 -6 -6 1022.0 1017.5
03 18.04 С 5 20 км ясно -1.0 -8.9 55 -7 -6 1023.9 1019.4 -1.5
06 18.04 СВ 7-12
{14}
20 км ясно +3.6 -12.6 29 -1 +1 1024.6 1020.2
09 18.04 СВ 6-12
{15}
20 км 3/0
[Ci fib]
+7.2 -14.7 19 +4 +9 1024.5 1020.1
12 18.04 СВ 7-12
{14}
20 км 3/0
[Ci fib]
+8.7 -13.2 20 +5 +8 1024.4 1020.0
15 18.04 СВ 5-11
{13}
20 км ясно +7.3 -13.2 22 +4 +5 1024.2 1019.8 +9.0
18 18.04 С 2
{11}
20 км ясно +2.3 -7.5 48 -0 -0 1025.9 1021.4
21 18.04 С 3 20 км ясно +0.3 -7.2 57 -4 -4 1026.1 1021.6
00 19.04 С 3 20 км ясно -1.0 -8.1 59 -5 -5 1025.5 1021.0
03 19.04 СВ 2 20 км 3/0
[Ci fib]
-1.2 -8.3 58 -4 -4 1026.1 1021.6 -2.2
06 19.04 СВ 4 20 км 3/0
[Ci fib]
+6.6 -10.6 28 +4 +10 1026.7 1022.3
09 19.04 СВ 5
{10}
20 км 6/0
[Ci fib]
+9.6 -13.9 18 +7 +14 1026.3 1021.9
12 19.04 СВ 4 20 км 6/0
[Ci fib]
+11.2 -14.6 15 +10 +15 1025.5 1021.1
15 19.04 СВ 3 20 км 6/0
[Ac trans]
+10.0 -12.1 20 +9 +9 1025.2 1020.8 +11.4
18 19.04 СВ 3 20 км ясно +6.0 -10.1 30 +4 +4 1026.4 1021.9
21 19.04 В 1 20 км ясно +2.0 -6.6 53 +1 +1 1026.4 1021.9
00 20.04 штиль 0 20 км ясно -0.1 -5.8 65 -1 -1 1026.1 1021.6
03 20.04 С 2 20 км ясно +1.2 -7.1 54 -2 -1 1025.9 1021.4 -1.6
06 20.04 СВ 3 20 км ясно +10.7 -10.8 21 +10 +17 1026.2 1021.9
09 20.04 В 4 20 км ясно +12.6 -12.0 17 +11 +21 опасность
простуды
1025.6 1021.3
12 20.04 В 2 20 км ясно +14.2 -11.4 16 +14 +23 1024.9 1020.6
15 20.04 СВ 3 20 км ясно +12.6 -11.4 18 +12 +12 1024.7 1020.4 +14.3
18 20.04 С 2 20 км ясно +7.8 -8.1 31 +7 +7 1026.0 1021.6
21 20.04 СВ 1 20 км ясно +4.8 -6.3 44 +4 +4 1025.9 1021.4
00 21.04 СВ 2 20 км ясно +3.5 -6.6 48 +1 +1 1025.1 1020.6
03 21.04 СВ 2 20 км ясно +3.4 -5.1 54 +1 +2 1025.7 1021.2 +2.3
06 21.04 СВ 2 20 км ясно +11.3 -4.9 32 +11 +20 1025.8 1021.6
09 21.04 СВ 2 20 км ясно +13.7 -9.1 20 +14 +29 опасность
простуды
1025.6 1021.4
12 21.04 С 2 20 км ясно +14.5 -11.4 16 +15 +23 1024.9 1020.7
15 21.04 СВ 2 20 км ясно +13.8 -10.0 18 +14 +14 1024.8 1020.5 +15.7
18 21.04 штиль 0 20 км ясно +6.8 -3.1 49 +7 +7 1025.7 1021.3
21 21.04 СВ 2 20 км ясно +6.8 -6.7 37 +5 +5 1025.7 1021.3
00 22.04 штиль 0 20 км ясно +2.5 -4.3 61 +2 +2 1025.7 1021.2
03 22.04 З 1 20 км ясно +4.1 -4.6 53 +3 +4 1026.2 1021.8 +1.2
06 22.04 С 2 20 км ясно +13.6 -4.1 29 +13 +23 1026.5 1022.1
09 22.04 С 3 20 км 6/4 1000 м
[Cu hum Ci fib]
+16.6 -7.3 19 +17 +24 1025.6 1021.3
12 22.04 СЗ 3 20 км 6/6 600 м
[Sc]
+17.1 -7.4 18 +17 +20 1024.3 1020.0
15 22.04 СЗ 2 20 км 4/0
[Ac trans]
+15.9 -5.6 22 +16 +17 1023.8 1019.5 +17.6
18 22.04 З 2 20 км ясно +8.3 -0.9 52 +7 +7 1024.4 1020.0
21 22.04 З 3 20 км ясно +7.7 -2.7 48 +5 +5 1024.2 1019.8

 

Местоположение метеостанции Верхний Баскунчак (Астраханская область, Россия): широта 48.22 долгота 46.73 высота над уровнем моря 35 м.

В архиве по умолчанию представлена погода в Верхнем Баскунчаке за последнюю неделю. Архивные данные за месяц целиком и за предыдущие месяцы, начиная с января 2011 года, Вы можете получить, выбрав интересующий диапазон дат из раскрывающегося списка и нажав кнопку "Ввод!".


*Определитесь, кто Вы:
робот инопланетянин человек

Внимание! Время в таблицах - всемирное. Для получения местного времени необходимо прибавить поправку, которая равна 4 ч.

Смотрите также архив погоды в соседних городах и на ближайших метеорологических станциях:

Погода в Черный Яр (Астраханская область, Россия) (48 км)
Погода в Урде (Западно-Казахстанская область, Казахстан) (80 км)
Погода в Харабали (Астраханская область, Россия) (99 км)
Погода в Эльтоне (Волгоградская область, Россия) (102 км)
Погода в Юсте (Калмыкия, Россия) (125 км)
Погода в Жанибеке (Западно-Казахстанская область, Казахстан) (131 км)
Погода в Жанаказане (Западно-Казахстанская область, Казахстан) (144 км)
Погода в Малых Дербетах (Калмыкия, Россия) (154 км)
Погода в Жанауштогане (Атырауская область, Казахстан) (158 км)
Погода в Досанге (Астраханская область, Россия) (170 км)

Пояснения к столбцам:

Ветер - указаны скорость ветра в м/с - средняя за 10 мин, порывы в срок и между сроками (в фигурных скобках) и направление, откуда дует ветер: С - северный, СВ - северо-восточный, В - восточный, ЮВ - юго-восточный, Ю - южный, ЮЗ - юго-западный, З - западный, СЗ - северо-западный.
Видимость - горизонтальная дальность видимости в метрах или километрах. При видимости от 1 до 10 км при отсутствии осадков обычно наблюдается дымка, при ухудшении видимости до 1 км и менее - туман. В сухую погоду видимость может ухудшаться дымом, пылью или мглою.
Явления - указаны атмосферные явления, наблюдавшиеся в срок или в последний час перед сроком; фигурными скобками обозначены явления, наблюдавшиеся между сроками (за 1-3 часа до срока); квадратными скобками обозначены град или гололедные отложения с указанием их диаметра в мм.
Облачность - указаны через наклонную черту общая и нижняя облачность в баллах и высота нижней границы облаков в метрах; квадратными скобками обозначены формы облаков: Ci - перистые, Cs - перисто-слоистые, Cc - перисто-кучевые, Ac - высококучевые, As - высокослоистые, Sc - слоисто-кучевые, Ns - слоисто-дождевые, Cu - кучевые, Cb - кучево-дождевые. Подробнее классификацию облаков см. в Атласе облаков (PDF).
T - Температура воздуха - температура, измеренная на высоте 2 м над землей.
Td - Температура точки росы - температура, при понижении до которой содержащийся в воздухе водяной пар достигнет насыщения.
f - Относительная влажность воздуха - влажноcть воздуха, измеренная на высоте 2 м над землей.
Te - Эффективная температура - температура, которую ощущает одетый по сезону человек в тени. Характеристика душности погоды. При расчете учитывается влияние влажности воздуха и скорости ветра на теплоощущения человека.
Tes - Эффективная температура на солнце - температура, которую ощущает человек, с поправкой на солнечный нагрев. Характеристика знойности погоды. Зависит от высоты солнца над горизонтом, облачности и скорости ветра. Ночью, в пасмурную погоду, а также при ветре 12 м/с и более поправка равна нулю.
P - Атмосферное давление - приведенное к уровню моря атмосферное давление.
Po - Атмосферное давление - измеренное на уровне метеостанции атмосферное давление.
Tmin - Минимальная температура - минимум температуры воздуха на высоте 2 м над землей.
Tmax - Максимальная температура - максимум температуры воздуха на высоте 2 м над землей.
R - Количество осадков - Количество выпавших осадков за период времени, мм. При наведении курсора мыши на число - период времени, за который выпало указанное количество осадков.
R24 - Количество осадков - Количество выпавших осадков за 24 часа, мм.
S - Снежный покров - Высота снежного покрова, см. При наведении курсора мыши на число - состояние снежного покрова и степень покрытия местности в баллах.